Regional Weather Roundup
Issued by NWS Sioux Falls, SD

Home | Current Version | Previous Version | Text Only | Print | Product List | Glossary Off
Versions: 1 2 3 4 5 6 7 8 9 10 11 12 13 14 15 16 17 18 19 20 21 22 23 24 25 26 27 28 29 30 31 32 33 34 35 36 37 38 39 40 41 42 43 44 45 46 47 48 49 50

000
ASUS43 KFSD 301402
RWRFSD

WEATHER ROUNDUP FOR SE SOUTH DAKOTA/SW MINNESOTA/NW IOWA
NATIONAL WEATHER SERVICE SIOUX FALLS SD
900 AM CDT SUN AUG 30 2015

NOTE: "FAIR" INDICATES FEW OR NO CLOUDS BELOW 12,000 FEET WITH NO
SIGNIFICANT WEATHER AND OR OBSTRUCTIONS TO VISIBILITY.


SDZ038>040-050-052>070-301500-
SOUTHEAST SOUTH DAKOTA

CITY           SKY/WX    TMP DP  RH WIND       PRES   REMARKS
BROOKINGS      CLOUDY    63  59  88 S13       29.99S
CHAMBERLAIN    NOT AVBL
HURON          PTSUNNY   64  62  93 S16       29.89S
MADISON        FOG       59  59 100 S13       29.98S VSB 1
MITCHELL       MOSUNNY   65  64  97 S16       29.93F
SIOUX FALLS    CLOUDY    62  61  96 S12       29.99F FOG
WINNER         FAIR      71  54  54 S20       29.89S
YANKTON        CLOUDY    64  63  94 SE9       29.98S
$$

MNZ071-072-080-081-089-090-097-098-301500-
SOUTHWEST MINNESOTA

CITY           SKY/WX    TMP DP  RH WIND       PRES   REMARKS
FAIRMONT       CLOUDY    61  55  82 S9        30.03R
JACKSON        CLOUDY    63  61  94 SW9       30.03S
LUVERNE        CLOUDY    63  61  94 S10       30.02S FOG
MARSHALL       MOSUNNY   64  57  77 S14       29.97S
MONTEVIDEO     MOSUNNY   64  64 100 S8        29.96S
PIPESTONE      FOG       63  61  94 S12       30.00S VSB 3/4
REDWOOD FALLS  CLOUDY    64  61  90 S12       29.98S
TRACY          MOSUNNY   64  61  91 S15       29.98F FOG
WINDOM         CLOUDY    63  61  94 SW9       30.02R
WORTHINGTON    CLOUDY    63  57  82 SW12      30.02S
$$

IAZ001>003-012>014-020>022-031-032-NEZ013-014-SDZ071-301500-
NORTHWEST IOWA

CITY           SKY/WX    TMP DP  RH WIND       PRES   REMARKS
DENISON        CLOUDY    64  64 100 VRB5      30.04S FOG
ESTHERVILLE    CLOUDY    61  60  97 S9        30.03S
SIOUX CITY     NOT AVBL
SPENCER        CLOUDY    64  59  83 SW10      30.03S
$$

ABBREVIATIONS USED IN REMARKS
   TC - TEMPERATURE IN CELSIUS
  WCI - WIND CHILL INDEX
   HX - HEAT INDEX
  VSB - VISIBILITY




USA.gov is the U.S. government's official web portal to all federal, state and local government web resources and services.